(84426) = 2002 TP218

Discovered at Socorro on 2002-10-05 by LINEAR.

Orbit

Orbit type: Main Belt

Note: WebGL enabled browser required.

epoch2024-03-31.0
epoch JD2460400.5
perihelion date2021-02-06.51203
perihelion JD2459252.01203
argument of perihelion (°)69.89587
ascending node (°)250.43434
inclination (°)6.24309
eccentricity0.1232430
perihelion distance (AU)2.1155136
Tisserand w.r.t. Jupiter3.5
ΔV w.r.t. Earth (km/sec)9.3
semimajor axis (AU)2.4128848
mean anomaly (°)302.01284
mean daily motion (°/day)0.26296560
aphelion distance (AU)2.710
period (years)3.75
P-vector [x]0.76448860
P-vector [y]-0.62459601
P-vector [z]-0.15948981
Q-vector [x]0.63644131
Q-vector [y]0.69197686
Q-vector [z]0.34074989
absolute magnitude15.88
phase slope0.15
uncertainty0
referenceMPEC 2024-D06
observations used1015
oppositions17
arc length (days)8992
first opposition used1998
last opposition used2023
residual rms (arc-secs)0.69
perturbers coarse indicatorM-v
perturbers precise indicator003Ek
first observation date used1998-08-27.0
last observation date used2023-04-10.0
computer nameMPCLINUX
JD of orbit computation2456612.777281
perihelion JD uncertainty (days)8.4853E-05
argument of perihelion uncertainty (°)5.5036E-05
ascending node uncertainty (°)4.9423E-05
inclination uncertainty (°)5.4142E-06
eccentricity uncertainty 4.6563E-08
perihelion distance uncertainty (AU)1.1357E-07
Minimum Orbit Intersection Distances (in AU)
for orbit epoch: 2460400.5, reference: E2024-D06
Mercury1.69928
Venus1.40034
Earth1.11199
Mars0.74691
Jupiter2.5476
Saturn6.41694
Uranus15.7739
Neptune27.406

Observations

1039 total observations over interval: 1998 08 27.20740 – 2023 04 10.340956
These data are available for download (format description).

Date (UT) J2000 RA J2000 Dec Magn Location Ref
1998 08 27.20740 20 58 31.04 -05 32 12.2 19.2   704 – Lincoln Laboratory ETS, New Mexico MPS 80138
1998 08 27.22499 20 58 30.24 -05 32 16.6 19.5   704 – Lincoln Laboratory ETS, New Mexico MPS 80138
1998 08 27.24249 20 58 29.53 -05 32 22.5 19.5   704 – Lincoln Laboratory ETS, New Mexico MPS 80138
1998 08 27.26008 20 58 28.62 -05 32 22.4 19.8   704 – Lincoln Laboratory ETS, New Mexico MPS 80138
1998 09 22.12215 20 50 07.57 -07 13 19.5 18.8 R 699 – Lowell Observatory-LONEOS MPS 80138
1998 09 22.14698 20 50 07.69 -07 13 24.7   699 – Lowell Observatory-LONEOS MPS 80138
1998 09 22.17414 20 50 07.75 -07 13 30.4   699 – Lowell Observatory-LONEOS MPS 80138
2001 03 24.33805 13 29 01.05 -17 50 14.3 18.8 R 699 – Lowell Observatory-LONEOS MPS 82693
2001 03 24.38028 13 28 59.00 -17 50 04.8   699 – Lowell Observatory-LONEOS MPS 82693
2001 03 24.40144 13 28 57.99 -17 50 00.0   699 – Lowell Observatory-LONEOS MPS 82693
2001 03 24.42514 13 28 56.91 -17 49 53.1   699 – Lowell Observatory-LONEOS MPS 82693
2002 09 07.29890 00 25 46.94 +14 13 42.1 18.7   704 – Lincoln Laboratory ETS, New Mexico MPS 81502
2002 09 07.31330 00 25 46.34 +14 13 39.2 18.8   704 – Lincoln Laboratory ETS, New Mexico MPS 81502
2002 09 07.32798 00 25 45.72 +14 13 36.9 18.7   704 – Lincoln Laboratory ETS, New Mexico MPS 81502
2002 09 07.34234 00 25 45.12 +14 13 33.6 19.0   704 – Lincoln Laboratory ETS, New Mexico MPS 81502
2002 09 12.50262 00 22 04.41 +13 54 48.3 18.2   644 – Palomar Mountain/NEAT MPS 81502
2002 09 12.51315 00 22 03.91 +13 54 45.6 18.2   644 – Palomar Mountain/NEAT MPS 81502
2002 09 12.52375 00 22 03.43 +13 54 42.6 18.3   644 – Palomar Mountain/NEAT MPS 81502
2002 09 17.44849 00 18 08.85 +13 30 29.7 19.1   608 – Haleakala-AMOS MPS 81502
2002 09 17.45925 00 18 08.31 +13 30 25.9 19.4   608 – Haleakala-AMOS MPS 81502
2002 09 17.46986 00 18 07.71 +13 30 22.6 18.7   608 – Haleakala-AMOS MPS 81502
2002 10 05.25249 00 03 02.00 +11 23 44.7 18.0   704 – Lincoln Laboratory ETS, New Mexico MPS 64179
2002 10 05.25291 00 03 01.96 +11 23 44.0 17.9   704 – Lincoln Laboratory ETS, New Mexico MPS 81502
2002 10 05.26813 00 03 01.23 +11 23 36.8 18.6   704 – Lincoln Laboratory ETS, New Mexico MPS 64179
2002 10 05.26844 00 03 01.16 +11 23 36.5 18.0   704 – Lincoln Laboratory ETS, New Mexico MPS 81502
2002 10 05.28371 00 03 00.40 +11 23 29.1 18.2   704 – Lincoln Laboratory ETS, New Mexico MPS 64179
2002 10 05.28403 00 03 00.40 +11 23 28.5 18.3   704 – Lincoln Laboratory ETS, New Mexico MPS 81502
2002 10 05.29927 00 02 59.58 +11 23 20.6 18.4   704 – Lincoln Laboratory ETS, New Mexico MPS 64179
2002 10 05.29959 00 02 59.60 +11 23 20.8 18.2   704 – Lincoln Laboratory ETS, New Mexico MPS 81502
2002 10 05.31481 00 02 58.82 +11 23 13.0 18.0   704 – Lincoln Laboratory ETS, New Mexico MPS 64179
2002 10 05.31513 00 02 58.81 +11 23 13.2 18.4   704 – Lincoln Laboratory ETS, New Mexico MPS 81502
2002 10 09.25230 23 59 56.67 +10 50 24.9 17.9   704 – Lincoln Laboratory ETS, New Mexico MPS 64179
2002 10 09.26790 23 59 55.95 +10 50 17.2 18.1   704 – Lincoln Laboratory ETS, New Mexico MPS 64179
2002 10 09.28348 23 59 55.21 +10 50 09.4 18.1   704 – Lincoln Laboratory ETS, New Mexico MPS 64179
2002 10 09.29898 23 59 54.49 +10 50 01.1 17.9   704 – Lincoln Laboratory ETS, New Mexico MPS 64179
2002 10 09.31481 23 59 53.74 +10 49 53.1 18.1   704 – Lincoln Laboratory ETS, New Mexico MPS 64179
2002 10 12.17506 23 57 52.09 +10 25 53.6 18.2   704 – Lincoln Laboratory ETS, New Mexico MPS 81502
2002 10 12.19054 23 57 51.45 +10 25 45.3 18.6   704 – Lincoln Laboratory ETS, New Mexico MPS 81502
2002 10 12.22101 23 57 50.11 +10 25 29.0 18.3   704 – Lincoln Laboratory ETS, New Mexico MPS 81502
2002 10 12.23659 23 57 49.45 +10 25 23.0 18.7   704 – Lincoln Laboratory ETS, New Mexico MPS 81502
2002 11 08.15694 23 49 04.32 +07 15 58.9 19.1   704 – Lincoln Laboratory ETS, New Mexico MPS 81502
2002 11 08.17415 23 49 04.39 +07 15 53.3 19.6   704 – Lincoln Laboratory ETS, New Mexico MPS 81502
2002 11 08.19124 23 49 04.45 +07 15 47.8 19.7   704 – Lincoln Laboratory ETS, New Mexico MPS 81502
2002 11 08.20826 23 49 04.44 +07 15 42.2 19.8   704 – Lincoln Laboratory ETS, New Mexico MPS 81502
2002 11 08.22546 23 49 04.58 +07 15 39.1 19.3   704 – Lincoln Laboratory ETS, New Mexico MPS 81502
2002 12 01.15388 23 58 00.80 +06 17 11.0 19.6   704 – Lincoln Laboratory ETS, New Mexico MPS 74200
2002 12 01.16911 23 58 01.42 +06 17 10.2 19.6   704 – Lincoln Laboratory ETS, New Mexico MPS 74200
2002 12 01.18415 23 58 02.03 +06 17 10.4 20.0   704 – Lincoln Laboratory ETS, New Mexico MPS 74200
2002 12 01.19927 23 58 02.64 +06 17 10.5 19.7   704 – Lincoln Laboratory ETS, New Mexico MPS 74200
2002 12 06.15357 00 01 41.73 +06 18 07.7 19.9   704 – Lincoln Laboratory ETS, New Mexico MPS 74200
2002 12 06.15432 00 01 41.59 +06 18 08.1 19.9   704 – Lincoln Laboratory ETS, New Mexico MPS 81502
2002 12 06.16868 00 01 42.53 +06 18 07.7 20.3   704 – Lincoln Laboratory ETS, New Mexico MPS 74200
2002 12 06.16943 00 01 42.36 +06 18 08.6 19.9   704 – Lincoln Laboratory ETS, New Mexico MPS 81502
2002 12 06.18372 00 01 43.02 +06 18 08.5 19.7   704 – Lincoln Laboratory ETS, New Mexico MPS 74200
2002 12 06.18447 00 01 43.12 +06 18 08.1 19.6   704 – Lincoln Laboratory ETS, New Mexico MPS 81502
2002 12 06.19892 00 01 43.77 +06 18 08.4 19.8   704 – Lincoln Laboratory ETS, New Mexico MPS 74200
2002 12 06.19968 00 01 43.81 +06 18 10.0 19.7   704 – Lincoln Laboratory ETS, New Mexico MPS 81502
2004 01 23.35389 08 36 30.14 +10 13 28.3 19.5   704 – Lincoln Laboratory ETS, New Mexico MPS 97797
2004 01 23.36671 08 36 29.39 +10 13 31.3 19.6   704 – Lincoln Laboratory ETS, New Mexico MPS 97797
2004 01 23.37959 08 36 28.53 +10 13 32.2 19.6   704 – Lincoln Laboratory ETS, New Mexico MPS 97797
2004 01 23.39273 08 36 27.74 +10 13 34.6 19.5   704 – Lincoln Laboratory ETS, New Mexico MPS 97797
2004 02 09.26799 08 19 37.11 +11 01 02.2 19.6   644 – Palomar Mountain/NEAT MPS 98784
2004 02 09.34133 08 19 32.91 +11 01 15.9 19.1   644 – Palomar Mountain/NEAT MPS 98785
2004 02 09.40426 08 19 29.35 +11 01 27.5 19.3   644 – Palomar Mountain/NEAT MPS 98785
2004 02 11.20656 08 17 51.30 +11 07 11.2 19.9   644 – Palomar Mountain/NEAT MPS 98785
2004 02 11.22951 08 17 50.00 +11 07 15.7 19.8   644 – Palomar Mountain/NEAT MPS 98785
2004 02 11.25047 08 17 48.86 +11 07 19.8 19.8   644 – Palomar Mountain/NEAT MPS 98785
2004 02 23.22931 08 08 30.39 +11 45 24.8 20.0 C 704 – Lincoln Laboratory ETS, New Mexico MPS 293999
2004 02 23.25489 08 08 29.30 +11 45 29.3 19.4 C 704 – Lincoln Laboratory ETS, New Mexico MPS 293999
2004 02 23.26722 08 08 29.03 +11 45 31.8 19.3 C 704 – Lincoln Laboratory ETS, New Mexico MPS 293999
2004 02 23.27956 08 08 28.41 +11 45 33.8 20.4 C 704 – Lincoln Laboratory ETS, New Mexico MPS 293999
2005 04 30.68395 15 41 16.22 -23 20 45.9 18.4 R E12 – Siding Spring Survey MPS 133796
2005 04 30.69532 15 41 15.68 -23 20 41.8 19.2 R E12 – Siding Spring Survey MPS 133796
2005 04 30.70670 15 41 15.05 -23 20 38.8 19.1 R E12 – Siding Spring Survey MPS 133796
2005 04 30.71809 15 41 14.42 -23 20 35.9 18.5 R E12 – Siding Spring Survey MPS 133796
2005 05 04.41388 15 38 03.24 -23 01 59.1 18.6   644 – Palomar Mountain/NEAT MPS 133796
2005 05 04.42490 15 38 02.60 -23 01 55.6 18.2   644 – Palomar Mountain/NEAT MPS 133796
2005 05 04.43509 15 38 02.07 -23 01 52.1 19.0   644 – Palomar Mountain/NEAT MPS 133796
2005 05 11.41612 15 31 29.13 -22 21 50.3 18.2   644 – Palomar Mountain/NEAT MPS 134665
2005 05 11.43877 15 31 27.77 -22 21 41.9 18.3   644 – Palomar Mountain/NEAT MPS 134665
2005 05 11.46088 15 31 26.44 -22 21 33.6 18.6   644 – Palomar Mountain/NEAT MPS 134665
2005 05 16.36919 15 26 37.99 -21 50 27.6 18.1   644 – Palomar Mountain/NEAT MPS 135280
2005 05 16.37073 15 26 37.88 -21 50 26.9 18.1   644 – Palomar Mountain/NEAT MPS 135280
2005 05 16.40339 15 26 35.90 -21 50 14.0 18.2   644 – Palomar Mountain/NEAT MPS 135280
2005 05 16.40756 15 26 35.63 -21 50 12.3 18.4   644 – Palomar Mountain/NEAT MPS 135280
2005 05 16.43507 15 26 33.96 -21 50 01.3 18.1   644 – Palomar Mountain/NEAT MPS 135280
2005 05 16.43651 15 26 33.86 -21 50 00.8 18.1   644 – Palomar Mountain/NEAT MPS 135280
